Location: Newark
(48.3706°N, 17.1868°E)
Time: 05:52:49
(UTC+00:00)

Envisat - Visible Passes

Search period start: 18 October 2019 00:00
Search period end: 28 October 2019 00:00
Orbit: 764 x 766 km, 98.1° (Epoch: 17 October)

Date Brightness Start Highest point End Pass type
(mag) Time Alt. Az. Time Alt. Az. Time Alt. Az.
18 Oct 3.5 17:06:06 10° S 17:11:08 64° W 17:16:12 10° NNW visible
19 Oct 3.0 16:29:21 10° SSE 16:34:22 64° ENE 16:39:25 10° N visible
19 Oct 5.7 18:10:16 10° SW 18:13:51 19° W 18:17:27 10° NW visible
20 Oct 6.1 04:35:34 10° NE 04:38:51 17° E 04:42:07 10° SE visible
20 Oct 4.5 17:32:02 10° SSW 17:36:45 38° W 17:41:30 10° NNW visible
21 Oct 3.2 16:54:46 10° S 16:59:51 79° WSW 17:04:58 10° NNW visible
21 Oct 6.2 18:38:14 10° WSW 18:39:43 11° W 18:41:12 10° WNW visible
22 Oct 3.2 16:18:13 10° SE 16:23:08 52° ENE 16:28:05 10° N visible
22 Oct 5.4 17:58:26 10° SW 18:02:28 23° W 18:06:31 10° NW visible
23 Oct 6.3 04:24:54 10° ENE 04:27:26 14° E 04:29:57 10° ESE visible
23 Oct 4.1 17:20:32 10° S 17:25:25 47° W 17:30:21 10° NNW visible
24 Oct 3.0 16:43:30 10° SSE 16:48:35 85° ENE 16:53:42 10° NNW visible
24 Oct 6.0 18:25:38 10° WSW 18:28:17 14° W 18:30:57 10° NW visible
25 Oct 5.9 04:49:16 10° NE 04:53:16 23° E 04:57:14 10° SE visible
25 Oct 5.0 17:46:43 10° SSW 17:51:06 29° W 17:55:29 10° NW visible
26 Oct 6.6 04:14:49 10° ENE 04:16:00 11° E 04:17:11 10° E visible
26 Oct 3.6 17:09:07 10° S 17:14:07 59° W 17:19:09 10° NNW visible
27 Oct 2.9 16:32:17 10° SSE 16:37:19 70° ENE 16:42:24 10° N visible
27 Oct 5.8 18:13:31 10° SW 18:16:53 18° W 18:20:15 10° NW visible
